Regional Weather Roundup
Issued by NWS

Home | Current Version | Previous Version | Text Only | Print | Product List | Glossary On
Versions: 1 2 3 4 5 6 7 8 9 10 11 12 13 14 15 16 17 18 19 20 21 22 23 24 25 26 27 28 29 30 31 32 33 34 35 36 37 38 39 40 41 42 43 44 45 46 47 48 49 50
000
ASUS43 KBIS 021410
RWRND

NORTH DAKOTA REGIONAL WEATHER ROUNDUP
NATIONAL WEATHER SERVICE BISMARCK ND
900 AM CDT TUE JUN 02 2015

NOTE: "FAIR" INDICATES FEW OR NO CLOUDS BELOW 12,000 FEET WITH NO
SIGNIFICANT WEATHER AND/OR OBSTRUCTIONS TO VISIBILITY.


NDZ001>003-009>011-017-021500-
NORTHWEST NORTH DAKOTA

CITY           SKY/WX    TMP DP  RH WIND       PRES   REMARKS
WILLISTON      LGT RAIN  58  54  86 NE10      29.82R FOG
MINOT          CLOUDY    62  58  86 N10       29.77R
MINOT AFB      CLOUDY    61  61 100 NE14      29.76R
$$

NDZ018>021-031>035-040>046-021500-
SOUTHWEST NORTH DAKOTA

CITY           SKY/WX    TMP DP  RH WIND       PRES   REMARKS
BISMARCK       PTSUNNY   63  59  87 E7        29.76R
DICKINSON      PTSUNNY   63  57  81 S10       29.78R
GARRISON         N/A     65  60  84 CALM      29.76S
HETTINGER ARPT MOSUNNY   65  55  70 SE8       29.81R
$$

NDZ004>008-012>016-024-026-027-054-021500-
NORTHEAST NORTH DAKOTA

CITY           SKY/WX    TMP DP  RH WIND       PRES   REMARKS
GRAND FORKS    CLOUDY    59  54  83 E10       29.80F
GRND FRKS AFB  CLOUDY    60  55  84 SE9       29.80F
DEVILS LAKE    CLOUDY    59  54  82 SW5       29.80R
$$

NDZ022-023-025-028>030-036>039-047>053-021500-
SOUTHEAST NORTH DAKOTA

CITY           SKY/WX    TMP DP  RH WIND       PRES   REMARKS
FARGO          CLOUDY    63  52  67 S12       29.88S
JAMESTOWN      CLOUDY    62  58  86 S12       29.80F
$$




USA.gov is the U.S. government's official web portal to all federal, state and local government web resources and services.